Date String (YYYY-MM-DD hh:mm:ss) UTC,Instrument flags,absolute air pressure of the measurement (hPa),sample flow rate (lpm),inlet stack bypass flow (lpm),air temperature of the measurement (°C),ambient temperature measured by the external sensor (°C),aerosol sample conditioner tube jacket temperature (°C),OPC LED temperature (°C),internal box temperature (°C),relative humidity of the measurement (%),span deviation,mass concentration of particles derived from Lorenz-Mie calculation of OPC scattering (μg/m³),mass concentration of particles derived from Lorenz-Mie calculation of OPC scattering (μg/m³),mass concentration of particles derived from Lorenz-Mie calculation of OPC scattering (μg/m³)
DateTimeUTC,F1_M11,P_M11,Q1_M11,Q2_M11,T1_M11,T2_M11,T3_M11,T4_M11,T5_M11,U1_M11,ZSPAN_M11,X2_M11,X0_M11,X1_M11
2024-01-29 10:00:00,SystemResetWarning,0837.2,5.00,000.00,023.4,022.3,000.0,031.7,024.9,14.1,0000.0,0001.06,0001.39,0000.87
2024-01-29 10:01:00,SystemResetWarning,0837.2,5.00,000.00,023.4,022.3,000.0,031.7,024.8,14.1,0000.0,0001.05,0001.36,0000.88
2024-01-29 10:02:00,SystemResetWarning,0837.2,4.99,000.00,023.4,022.3,000.0,031.7,024.8,14.0,0000.0,0001.04,0001.33,0000.88
2024-01-29 10:03:00,SystemResetWarning,0837.2,5.00,000.00,023.4,022.3,000.0,031.7,024.8,14.0,0000.0,0001.03,0001.32,0000.87
2024-01-29 10:04:00,SystemResetWarning,0837.2,5.00,000.00,023.4,022.3,000.0,031.7,024.8,14.0,0000.0,0001.03,0001.39,0000.87
2024-01-29 10:05:00,SystemResetWarning,0837.2,5.00,000.00,023.4,022.3,000.0,031.7,024.8,14.1,0000.0,0001.03,0001.42,0000.86
2024-01-29 10:06:00,SystemResetWarning,0837.2,5.00,000.00,023.4,022.2,000.0,031.7,024.8,14.1,0000.0,0001.04,0001.72,0000.85
2024-01-29 10:07:00,SystemResetWarning,0837.2,5.00,000.00,023.4,022.2,000.0,031.7,024.8,14.1,0000.0,0001.04,0003.05,0000.84
2024-01-29 10:08:00,SystemResetWarning,0837.2,5.00,000.00,023.4,022.2,000.0,031.7,024.8,14.1,0000.0,0001.05,0003.09,0000.84
2024-01-29 10:09:00,SystemResetWarning,0837.2,5.00,000.00,023.4,022.2,000.0,031.7,024.8,14.0,0000.0,0001.04,0003.08,0000.83
2024-01-29 10:10:00,SystemResetWarning,0837.2,5.00,000.00,023.4,022.2,000.0,031.7,024.7,14.0,0000.0,0001.05,0003.12,0000.83
2024-01-29 10:11:00,SystemResetWarning,0837.2,5.00,000.00,023.3,022.2,000.0,031.7,024.7,14.0,0000.0,0001.03,0003.40,0000.81
2024-01-29 10:12:00,SystemResetWarning,0837.2,5.00,000.00,023.3,022.2,000.0,031.7,024.7,14.0,0000.0,0001.01,0003.89,0000.81
2024-01-29 10:13:00,SystemResetWarning,0837.2,5.00,000.00,023.3,022.2,000.0,031.7,024.7,14.0,0000.0,0001.00,0004.23,0000.80
2024-01-29 10:14:00,SystemResetWarning,0837.2,5.00,000.00,023.3,022.2,000.0,031.7,024.7,14.0,0000.0,0001.00,0004.86,0000.79
2024-01-29 10:15:00,SystemResetWarning,0837.2,5.00,000.00,023.3,022.2,000.0,031.7,024.7,14.0,0000.0,0000.98,0005.31,0000.78
2024-01-29 10:16:00,SystemResetWarning,0837.2,5.00,000.00,023.3,022.2,000.0,031.7,024.8,14.0,0000.0,0000.96,0005.23,0000.77
2024-01-29 10:17:00,SystemResetWarning,0837.2,5.00,000.00,023.3,022.2,000.0,031.7,024.7,14.0,0000.0,0000.93,0005.00,0000.77
2024-01-29 10:18:00,SystemResetWarning,0837.2,5.00,000.00,023.3,022.2,000.0,031.7,024.7,14.0,0000.0,0000.91,0003.64,0000.77
2024-01-29 10:19:00,SystemResetWarning,0837.2,5.00,000.00,023.3,022.2,000.0,031.7,024.7,14.0,0000.0,0000.90,0003.60,0000.77
2024-01-29 10:20:00,SystemResetWarning,0837.2,5.00,000.00,023.3,022.2,000.0,031.6,024.8,14.0,0000.0,0000.90,0003.65,0000.76
2024-01-29 10:21:00,SystemResetWarning,0837.2,5.00,000.00,023.3,022.3,000.0,031.6,024.8,14.0,0000.0,0000.91,0003.75,0000.77
2024-01-29 10:22:00,SystemResetWarning,0837.2,5.00,000.00,023.3,022.3,000.0,031.7,024.8,13.9,0000.0,0000.94,0003.69,0000.79
2024-01-29 10:23:00,SystemResetWarning,0837.2,5.00,000.00,023.3,022.3,000.0,031.7,024.8,13.9,0000.0,0000.96,0004.20,0000.81
2024-01-29 10:24:00,SystemResetWarning,0837.2,4.99,000.00,023.3,022.3,000.0,031.7,024.8,13.9,0000.0,0000.98,0004.48,0000.82
2024-01-29 10:25:00,SystemResetWarning,0837.2,5.01,000.00,023.3,022.3,000.0,031.6,024.7,13.9,0000.0,0001.00,0003.90,0000.84
2024-01-29 10:26:00,SystemResetWarning,0837.2,5.01,000.00,023.3,022.3,000.0,031.6,024.7,14.0,0000.0,0001.01,0003.44,0000.84
2024-01-29 10:27:00,SystemResetWarning,0837.2,5.00,000.00,023.3,022.3,000.0,031.6,024.8,14.0,0000.0,0001.04,0003.51,0000.85
2024-01-29 10:28:00,SystemResetWarning,0837.2,5.00,000.00,023.3,022.3,000.0,031.6,024.8,14.0,0000.0,0001.04,0003.48,0000.86
2024-01-29 10:29:00,SystemResetWarning,0837.2,5.00,000.00,023.3,022.3,000.0,031.6,024.8,14.0,0000.0,0001.06,0003.44,0000.86
2024-01-29 10:30:00,SystemResetWarning,0837.2,5.00,000.00,023.3,022.3,000.0,031.6,024.8,14.0,0000.0,0001.06,0003.62,0000.86
2024-01-29 10:31:00,SystemResetWarning,0837.2,4.99,000.00,023.3,022.3,000.0,031.6,024.8,14.0,0000.0,0001.04,0003.72,0000.86
2024-01-29 10:32:00,SystemResetWarning,0837.2,5.00,000.00,023.3,022.3,000.0,031.6,024.8,14.0,0000.0,0001.03,0003.65,0000.84
2024-01-29 10:33:00,SystemResetWarning,0837.2,5.00,000.00,023.3,022.3,000.0,031.6,024.8,14.0,0000.0,0001.02,0003.50,0000.82
2024-01-29 10:34:00,SystemResetWarning,0837.2,5.00,000.00,023.3,022.3,000.0,031.6,024.8,14.0,0000.0,0001.02,0002.49,0000.80
2024-01-29 10:35:00,SystemResetWarning,0837.2,5.00,000.00,023.3,022.2,000.0,031.6,024.7,14.1,0000.0,0001.00,0001.91,0000.78
2024-01-29 10:36:00,SystemResetWarning,0837.2,5.00,000.00,023.3,022.2,000.0,031.6,024.7,14.1,0000.0,0000.98,0001.86,0000.77
2024-01-29 10:37:00,SystemResetWarning,0837.2,5.00,000.00,023.3,022.2,000.0,031.6,024.7,14.1,0000.0,0000.98,0001.78,0000.76
2024-01-29 10:38:00,SystemResetWarning,0837.2,5.00,000.00,023.3,022.2,000.0,031.6,024.7,14.1,0000.0,0000.98,0001.76,0000.76
2024-01-29 10:39:00,SystemResetWarning,0837.2,5.01,000.00,023.3,022.2,000.0,031.6,024.7,14.1,0000.0,0000.99,0001.80,0000.75
2024-01-29 10:40:00,SystemResetWarning,0837.2,5.00,000.00,023.3,022.2,000.0,031.6,024.7,14.1,0000.0,0000.99,0001.77,0000.75
2024-01-29 10:41:00,SystemResetWarning,0837.3,4.99,000.00,023.3,022.2,000.0,031.6,024.7,14.1,0000.0,0000.99,0001.66,0000.76
2024-01-29 10:42:00,SystemResetWarning,0837.2,4.99,000.00,023.3,022.2,000.0,031.6,024.7,14.1,0000.0,0000.99,0001.45,0000.76
2024-01-29 10:43:00,SystemResetWarning,0837.2,4.99,000.00,023.3,022.2,000.0,031.6,024.7,14.1,0000.0,0000.97,0001.36,0000.76
2024-01-29 10:44:00,SystemResetWarning,0837.2,5.00,000.00,023.3,022.2,000.0,031.6,024.7,14.0,0000.0,0000.97,0001.39,0000.77
2024-01-29 10:45:00,SystemResetWarning,0837.3,5.00,000.00,023.3,022.2,000.0,031.6,024.6,14.0,0000.0,0000.98,0001.40,0000.78
2024-01-29 10:46:00,SystemResetWarning,0837.2,5.00,000.00,023.3,022.2,000.0,031.6,024.7,14.0,0000.0,0000.98,0001.49,0000.79
2024-01-29 10:47:00,SystemResetWarning,0837.3,5.01,000.00,023.3,022.2,000.0,031.6,024.7,14.0,0000.0,0000.98,0001.47,0000.79
2024-01-29 10:48:00,SystemResetWarning,0837.3,5.00,000.00,023.2,022.2,000.0,031.6,024.7,14.1,0000.0,0000.96,0001.45,0000.79
2024-01-29 10:49:00,SystemResetWarning,0837.3,5.00,000.00,023.2,022.2,000.0,031.6,024.6,14.1,0000.0,0000.97,0001.53,0000.80
2024-01-29 10:50:00,SystemResetWarning,0837.2,5.00,000.00,023.2,022.2,000.0,031.6,024.6,14.1,0000.0,0000.96,0001.54,0000.80
2024-01-29 10:51:00,SystemResetWarning,0837.3,5.00,000.00,023.2,022.1,000.0,031.6,024.6,14.1,0000.0,0000.96,0001.56,0000.80
2024-01-29 10:52:00,SystemResetWarning,0837.3,4.99,000.00,023.2,022.1,000.0,031.6,024.6,14.1,0000.0,0000.97,0001.56,0000.79
2024-01-29 10:53:00,SystemResetWarning,0837.4,5.00,000.00,023.2,022.1,000.0,031.6,024.6,14.1,0000.0,0000.99,0001.59,0000.80
2024-01-29 10:54:00,SystemResetWarning,0837.3,5.00,000.00,023.2,022.1,000.0,031.6,024.6,14.2,0000.0,0001.03,0001.68,0000.81
2024-01-29 10:55:00,SystemResetWarning,0837.3,5.00,000.00,023.2,022.1,000.0,031.6,024.6,14.2,0000.0,0001.05,0001.68,0000.81
2024-01-29 10:56:00,SystemResetWarning,0837.4,5.00,000.00,023.2,022.1,000.0,031.5,024.6,14.2,0000.0,0001.03,0001.62,0000.81
2024-01-29 10:57:00,SystemResetWarning,0837.4,5.00,000.00,023.2,022.1,000.0,031.5,024.6,14.3,0000.0,0001.03,0001.58,0000.81
2024-01-29 10:58:00,SystemResetWarning,0837.3,5.00,000.00,023.2,022.1,000.0,031.5,024.6,14.3,0000.0,0001.04,0001.62,0000.80
2024-01-29 10:59:00,SystemResetWarning,0837.3,5.00,000.00,023.2,022.1,000.0,031.5,024.6,14.4,0000.0,0001.06,0001.66,0000.80
